EAG5672 SBEG-SCEL

Flight info

Callsign EAG5672
Flight time N/A
Altitude 32000
Route SUSNO UL322 VIR UW316 TAR DCT MUMUK UL322 EGIKA DCT ASIMO ASIMO7D
Aircraft B738/M-SDE2E3FGHIRWXY/LB1

Departure

Time 2026-05-05 15:28
Airport Eduardo Gomes International Airport (SBEG)

Arrival

Time N/A
Airport Comodoro Arturo Merino Benítez International Airport (SCEL)
Time Latitude Longitude Altitude Speed Heading
2026-05-05 15:00 -3.03267 -60.04620 272 ft 0 kts
2026-05-05 15:17 -3.03283 -60.04622 272 ft 4 kts
2026-05-05 15:17 -3.03310 -60.04625 272 ft 4 kts
2026-05-05 15:17 -3.03336 -60.04623 272 ft 4 kts 336°
2026-05-05 15:17 -3.03354 -60.04608 272 ft 4 kts 284°
2026-05-05 15:18 -3.03356 -60.04599 272 ft 0 kts 269°
2026-05-05 15:20 -3.03356 -60.04602 272 ft 2 kts 269°
2026-05-05 15:20 -3.03355 -60.04624 272 ft 5 kts 271°
2026-05-05 15:20 -3.03352 -60.04670 272 ft 8 kts 277°
2026-05-05 15:21 -3.03346 -60.04741 272 ft 11 kts 278°
2026-05-05 15:21 -3.03352 -60.04824 272 ft 14 kts 224°
2026-05-05 15:21 -3.03440 -60.04861 272 ft 14 kts 200°
2026-05-05 15:21 -3.03520 -60.04918 272 ft 14 kts 229°
2026-05-05 15:22 -3.03576 -60.05002 272 ft 15 kts 244°
2026-05-05 15:22 -3.03609 -60.05105 272 ft 16 kts 252°
2026-05-05 15:22 -3.03637 -60.05214 272 ft 16 kts 256°
2026-05-05 15:22 -3.03665 -60.05317 272 ft 15 kts 255°
2026-05-05 15:23 -3.03683 -60.05419 272 ft 15 kts 261°
2026-05-05 15:23 -3.03690 -60.05531 272 ft 17 kts 266°
2026-05-05 15:23 -3.03692 -60.05663 272 ft 21 kts 270°
2026-05-05 15:23 -3.03691 -60.05803 272 ft 20 kts 270°
2026-05-05 15:24 -3.03691 -60.05941 272 ft 19 kts 270°
2026-05-05 15:24 -3.03690 -60.06071 272 ft 18 kts 270°
2026-05-05 15:24 -3.03747 -60.06170 272 ft 17 kts 194°
2026-05-05 15:24 -3.03847 -60.06170 272 ft 6 kts 155°
2026-05-05 15:25 -3.03859 -60.06138 272 ft 3 kts 89°
2026-05-05 15:26 -3.03859 -60.06137 272 ft 0 kts 89°
2026-05-05 15:27 -3.03858 -60.06108 272 ft 12 kts 89°
2026-05-05 15:27 -3.03859 -60.05822 272 ft 73 kts 90°
2026-05-05 15:27 -3.03861 -60.05105 272 ft 131 kts 88°
2026-05-05 15:28 -3.03863 -60.04030 362 ft 172 kts 93°
2026-05-05 15:28 -3.03908 -60.02801 1026 ft 177 kts 94°
2026-05-05 15:28 -3.03982 -60.01563 1820 ft 177 kts 94°
2026-05-05 15:28 -3.04033 -60.00760 2355 ft 174 kts 95°
2026-05-05 15:29 -3.04426 -59.99569 2746 ft 194 kts 124°
2026-05-05 15:29 -3.06037 -59.98549 3119 ft 226 kts 167°
2026-05-05 15:29 -3.07639 -59.98690 3648 ft 240 kts 195°
2026-05-05 15:29 -3.08704 -59.99137 3902 ft 253 kts 199°
2026-05-05 15:30 -3.10890 -59.99990 4811 ft 259 kts 199°
2026-05-05 15:30 -3.12042 -60.00452 5142 ft 269 kts 199°
2026-05-05 15:30 -3.13817 -60.01165 5744 ft 278 kts 199°
2026-05-05 15:30 -3.15612 -60.01886 6446 ft 283 kts 199°
2026-05-05 15:31 -3.17455 -60.02627 7178 ft 287 kts 199°
2026-05-05 15:31 -3.19314 -60.03373 7876 ft 290 kts 199°
2026-05-05 15:31 -3.21207 -60.04134 8571 ft 294 kts 199°
2026-05-05 15:31 -3.23115 -60.04901 9242 ft 298 kts 199°
2026-05-05 15:32 -3.25054 -60.05680 9908 ft 302 kts 199°
2026-05-05 15:32 -3.27016 -60.06470 10548 ft 307 kts 200°
2026-05-05 15:32 -3.29028 -60.07279 11053 ft 317 kts 200°
2026-05-05 15:32 -3.31122 -60.08122 11368 ft 333 kts 200°
2026-05-05 15:33 -3.33328 -60.09009 11601 ft 350 kts 200°
2026-05-05 15:33 -3.35649 -60.09943 11819 ft 366 kts 200°
2026-05-05 15:33 -3.38064 -60.10914 12019 ft 381 kts 200°
2026-05-05 15:33 -3.40572 -60.11923 12205 ft 395 kts 200°
2026-05-05 15:34 -3.43141 -60.12956 12373 ft 408 kts 200°
2026-05-05 15:34 -3.45809 -60.14028 12643 ft 417 kts 200°
2026-05-05 15:34 -3.48510 -60.15115 13073 ft 421 kts 200°
2026-05-05 15:34 -3.51241 -60.16214 13524 ft 423 kts 200°
2026-05-05 15:35 -3.53988 -60.17319 13963 ft 426 kts 200°
2026-05-05 15:35 -3.56743 -60.18428 14388 ft 429 kts 200°
2026-05-05 15:35 -3.59511 -60.19542 14798 ft 431 kts 199°
2026-05-05 15:35 -3.62306 -60.20666 15190 ft 434 kts 200°
2026-05-05 15:36 -3.65119 -60.21798 15555 ft 437 kts 200°
2026-05-05 15:36 -3.67952 -60.22938 15911 ft 440 kts 200°
2026-05-05 15:36 -3.70793 -60.24082 16256 ft 442 kts 200°
2026-05-05 15:36 -3.73658 -60.25235 16591 ft 445 kts 200°
2026-05-05 15:37 -3.76532 -60.26391 16965 ft 446 kts 200°
2026-05-05 15:37 -3.79386 -60.27542 17257 ft 449 kts 200°
2026-05-05 15:37 -3.82334 -60.28729 17535 ft 452 kts 200°
2026-05-05 15:37 -3.85252 -60.29905 17827 ft 454 kts 200°
2026-05-05 15:38 -3.88199 -60.31092 18112 ft 457 kts 200°
2026-05-05 15:38 -3.91127 -60.32271 18387 ft 459 kts 200°
2026-05-05 15:38 -3.94127 -60.33398 18653 ft 460 kts 196°
2026-05-05 15:38 -3.97212 -60.34268 18912 ft 461 kts 192°
2026-05-05 15:39 -4.00343 -60.35010 19162 ft 463 kts 191°
2026-05-05 15:39 -4.03497 -60.35721 19404 ft 465 kts 191°
2026-05-05 15:39 -4.06661 -60.36442 19642 ft 467 kts 191°
2026-05-05 15:39 -4.09832 -60.37170 19878 ft 468 kts 191°
2026-05-05 15:40 -4.12973 -60.37894 20103 ft 470 kts 191°
2026-05-05 15:40 -4.16160 -60.38631 20325 ft 472 kts 191°
2026-05-05 15:40 -4.19368 -60.39375 20539 ft 473 kts 192°
2026-05-05 15:40 -4.22577 -60.40119 20746 ft 475 kts 192°
2026-05-05 15:41 -4.25802 -60.40868 20946 ft 476 kts 192°
2026-05-05 15:41 -4.29034 -60.41618 21141 ft 477 kts 191°
2026-05-05 15:41 -4.32285 -60.42373 21332 ft 479 kts 192°
2026-05-05 15:41 -4.35540 -60.43129 21515 ft 480 kts 192°
2026-05-05 15:42 -4.38799 -60.43886 21691 ft 481 kts 192°
2026-05-05 15:42 -4.42060 -60.44644 21863 ft 483 kts 192°
2026-05-05 15:42 -4.45339 -60.45407 22029 ft 484 kts 192°
2026-05-05 15:42 -4.48627 -60.46171 22192 ft 485 kts 192°
2026-05-05 15:43 -4.51879 -60.46927 22348 ft 486 kts 192°
2026-05-05 15:43 -4.55179 -60.47695 22500 ft 487 kts 192°
2026-05-05 15:43 -4.58488 -60.48464 22648 ft 488 kts 192°
2026-05-05 15:43 -4.61797 -60.49234 22791 ft 489 kts 192°
2026-05-05 15:44 -4.65118 -60.50007 22933 ft 490 kts 192°
2026-05-05 15:44 -4.68454 -60.50783 23068 ft 491 kts 192°
2026-05-05 15:44 -4.71788 -60.51559 23201 ft 492 kts 192°
2026-05-05 15:44 -4.75142 -60.52339 23330 ft 493 kts 192°
2026-05-05 15:45 -4.78488 -60.53118 23455 ft 494 kts 192°
2026-05-05 15:45 -4.81841 -60.53898 23575 ft 495 kts 192°
2026-05-05 15:45 -4.85202 -60.54681 23693 ft 496 kts 192°
2026-05-05 15:45 -4.88566 -60.55464 23807 ft 497 kts 192°
2026-05-05 15:46 -4.91936 -60.56249 23918 ft 498 kts 192°
2026-05-05 15:46 -4.95317 -60.57036 24025 ft 499 kts 192°
2026-05-05 15:46 -4.98697 -60.57823 24129 ft 499 kts 192°
2026-05-05 15:46 -5.02095 -60.58615 24231 ft 500 kts 192°
2026-05-05 15:47 -5.05484 -60.59404 24330 ft 501 kts 192°
2026-05-05 15:47 -5.07733 -60.59928 24394 ft 501 kts 192°
2026-05-05 15:47 -5.12237 -60.60977 24518 ft 502 kts 192°
2026-05-05 15:47 -5.15637 -60.61770 24608 ft 503 kts 192°
2026-05-05 15:48 -5.19048 -60.62564 24695 ft 504 kts 192°
2026-05-05 15:48 -5.22471 -60.63362 24782 ft 504 kts 192°
2026-05-05 15:48 -5.25893 -60.64160 24865 ft 505 kts 192°
2026-05-05 15:48 -5.29313 -60.64957 24946 ft 506 kts 192°
2026-05-05 15:49 -5.32766 -60.65762 25024 ft 506 kts 192°
2026-05-05 15:49 -5.36197 -60.66562 25100 ft 507 kts 192°
2026-05-05 15:49 -5.39597 -60.67355 25174 ft 507 kts 192°
2026-05-05 15:49 -5.43080 -60.68167 25240 ft 508 kts 192°
2026-05-05 15:50 -5.46519 -60.68970 25352 ft 508 kts 192°
2026-05-05 15:50 -5.49967 -60.69774 25482 ft 507 kts 192°
2026-05-05 15:50 -5.53356 -60.70565 25593 ft 507 kts 192°
2026-05-05 15:50 -5.56788 -60.71366 25717 ft 506 kts 192°
2026-05-05 15:51 -5.60221 -60.72167 25838 ft 506 kts 192°
2026-05-05 15:51 -5.63646 -60.72969 25960 ft 505 kts 192°
2026-05-05 15:51 -5.67076 -60.73771 26079 ft 505 kts 192°
2026-05-05 15:51 -5.70503 -60.74574 26207 ft 504 kts 192°
2026-05-05 15:52 -5.73934 -60.75378 26333 ft 504 kts 192°
2026-05-05 15:52 -5.77350 -60.76179 26462 ft 504 kts 192°
2026-05-05 15:52 -5.80752 -60.76977 26593 ft 503 kts 192°
2026-05-05 15:52 -5.84130 -60.77769 26722 ft 503 kts 192°
2026-05-05 15:53 -5.87536 -60.78568 26856 ft 502 kts 192°
2026-05-05 15:53 -5.90931 -60.79364 26991 ft 502 kts 192°
2026-05-05 15:53 -5.94328 -60.80161 27127 ft 501 kts 192°
2026-05-05 15:53 -5.97731 -60.80959 27266 ft 501 kts 192°
2026-05-05 15:54 -6.01125 -60.81754 27409 ft 500 kts 192°
2026-05-05 15:54 -6.04510 -60.82547 27550 ft 500 kts 192°
2026-05-05 15:54 -6.07903 -60.83344 27695 ft 499 kts 192°
2026-05-05 15:54 -6.11294 -60.84140 27840 ft 499 kts 192°
2026-05-05 15:55 -6.14668 -60.84932 27987 ft 498 kts 192°
2026-05-05 15:55 -6.18051 -60.85726 28137 ft 498 kts 192°
2026-05-05 15:55 -6.21428 -60.86520 28287 ft 497 kts 192°
2026-05-05 15:55 -6.24794 -60.87310 28439 ft 497 kts 192°
2026-05-05 15:56 -6.28160 -60.88101 28592 ft 496 kts 192°
2026-05-05 15:56 -6.31527 -60.88892 28746 ft 496 kts 192°
2026-05-05 15:56 -6.34889 -60.89659 28903 ft 495 kts 191°
2026-05-05 15:56 -6.38251 -60.90413 29059 ft 495 kts 191°
2026-05-05 15:57 -6.41571 -60.91159 29215 ft 494 kts 191°
2026-05-05 15:57 -6.44926 -60.91915 29374 ft 494 kts 191°
2026-05-05 15:57 -6.48274 -60.92670 29534 ft 493 kts 191°
2026-05-05 15:57 -6.51627 -60.93426 29696 ft 493 kts 191°
2026-05-05 15:58 -6.54979 -60.94183 29859 ft 492 kts 191°
2026-05-05 15:58 -6.58319 -60.94938 30021 ft 492 kts 191°
2026-05-05 15:58 -6.61653 -60.95691 30184 ft 491 kts 191°
2026-05-05 15:58 -6.64990 -60.96445 30349 ft 491 kts 191°
2026-05-05 15:59 -6.68316 -60.97196 30513 ft 490 kts 191°
2026-05-05 15:59 -6.71649 -60.97948 30681 ft 490 kts 191°
2026-05-05 15:59 -6.74967 -60.98698 30847 ft 489 kts 191°
2026-05-05 15:59 -6.78288 -60.99449 31014 ft 489 kts 191°
2026-05-05 16:00 -6.81617 -61.00201 31181 ft 488 kts 191°
2026-05-05 16:00 -6.84933 -61.00951 31350 ft 488 kts 191°
2026-05-05 16:00 -6.88196 -61.01689 31519 ft 487 kts 191°
2026-05-05 16:00 -6.91506 -61.02438 31689 ft 487 kts 191°
2026-05-05 16:01 -6.94814 -61.03186 31860 ft 486 kts 191°
2026-05-05 16:01 -6.98115 -61.03933 32031 ft 486 kts 192°
2026-05-05 16:01 -7.01407 -61.04678 32205 ft 485 kts 192°
2026-05-05 16:01 -7.04712 -61.05426 32400 ft 484 kts 192°
2026-05-05 16:02 -7.08000 -61.06170 32589 ft 483 kts 192°
2026-05-05 16:02 -7.11237 -61.06903 32774 ft 482 kts 192°
2026-05-05 16:02 -7.14550 -61.07654 32964 ft 481 kts 192°
2026-05-05 16:02 -7.17811 -61.08392 33151 ft 481 kts 192°
2026-05-05 16:03 -7.21033 -61.09122 33335 ft 480 kts 192°
2026-05-05 16:03 -7.24289 -61.09860 33523 ft 479 kts 192°
2026-05-05 16:03 -7.27539 -61.10596 33706 ft 478 kts 192°
2026-05-05 16:03 -7.30792 -61.11333 33890 ft 477 kts 192°
2026-05-05 16:04 -7.34039 -61.12069 34041 ft 477 kts 192°
2026-05-05 16:04 -7.40526 -61.13540 34048 ft 477 kts 192°
2026-05-05 16:05 -7.46996 -61.15007 34053 ft 477 kts 192°
2026-05-05 16:05 -7.53474 -61.16476 34053 ft 477 kts 192°
2026-05-05 16:06 -7.59912 -61.17937 34053 ft 477 kts 192°
2026-05-05 16:06 -7.66388 -61.19407 34053 ft 477 kts 192°
2026-05-05 16:07 -7.72864 -61.20878 34053 ft 477 kts 192°
2026-05-05 16:07 -7.79344 -61.22350 34053 ft 477 kts 192°
2026-05-05 16:08 -7.85835 -61.23827 34053 ft 477 kts 192°
2026-05-05 16:08 -7.92270 -61.25292 34053 ft 477 kts 192°
2026-05-05 16:09 -7.98740 -61.26766 34053 ft 477 kts 192°
2026-05-05 16:09 -8.05214 -61.28241 34053 ft 477 kts 192°
2026-05-05 16:10 -8.11682 -61.29712 34053 ft 477 kts 192°
2026-05-05 16:10 -8.18164 -61.31190 34053 ft 477 kts 192°
2026-05-05 16:11 -8.24656 -61.32671 34053 ft 477 kts 192°
2026-05-05 16:12 -8.37566 -61.35618 34053 ft 477 kts 192°
2026-05-05 16:13 -8.53753 -61.39300 34053 ft 477 kts 192°
2026-05-05 16:13 -8.60231 -61.40776 34053 ft 477 kts 192°
2026-05-05 16:14 -8.72096 -61.43479 34053 ft 477 kts 192°
2026-05-05 16:15 -8.86094 -61.46668 34038 ft 477 kts 192°
2026-05-05 16:16 -8.97973 -61.49377 34037 ft 477 kts 192°
2026-05-05 16:17 -9.07697 -61.51599 34037 ft 477 kts 192°
2026-05-05 16:18 -9.17388 -61.53813 34037 ft 477 kts 192°
2026-05-05 16:19 -9.27127 -61.56009 34037 ft 477 kts 192°
2026-05-05 16:19 -9.36846 -61.58201 34037 ft 477 kts 192°
2026-05-05 16:20 -9.49792 -61.61126 34037 ft 477 kts 192°
2026-05-05 16:22 -9.65989 -61.64860 34036 ft 477 kts 193°
2026-05-05 16:23 -9.78909 -61.68009 34036 ft 477 kts 193°
2026-05-05 16:23 -9.88569 -61.70354 34037 ft 477 kts 192°
2026-05-05 16:24 -9.95031 -61.71923 34037 ft 477 kts 192°
2026-05-05 16:25 -10.04719 -61.74280 34037 ft 477 kts 192°
2026-05-05 16:25 -10.14384 -61.76632 34037 ft 477 kts 192°
2026-05-05 16:26 -10.27298 -61.79775 34038 ft 477 kts 192°
2026-05-05 16:27 -10.33741 -61.81345 34038 ft 477 kts 192°
2026-05-05 16:27 -10.40200 -61.82920 34038 ft 477 kts 192°
2026-05-05 16:28 -10.46642 -61.84492 34038 ft 477 kts 192°
2026-05-05 16:28 -10.53114 -61.86071 34038 ft 477 kts 192°
2026-05-05 16:29 -10.59556 -61.87643 34039 ft 477 kts 192°
2026-05-05 16:29 -10.66016 -61.89220 34039 ft 477 kts 192°
2026-05-05 16:30 -10.72431 -61.90789 34039 ft 477 kts 192°
2026-05-05 16:30 -10.78897 -61.92370 34039 ft 477 kts 192°
2026-05-05 16:31 -10.85356 -61.93950 34040 ft 477 kts 192°
2026-05-05 16:31 -10.91838 -61.95344 34040 ft 476 kts 187°
2026-05-05 16:32 -10.98405 -61.96311 34040 ft 476 kts 188°
2026-05-05 16:32 -11.04965 -61.97358 34040 ft 476 kts 188°
2026-05-05 16:33 -11.11474 -61.98394 34041 ft 476 kts 188°
2026-05-05 16:33 -11.18027 -61.99436 34042 ft 476 kts 188°
2026-05-05 16:34 -11.24585 -62.00478 34045 ft 476 kts 188°
2026-05-05 16:34 -11.31125 -62.01518 34052 ft 476 kts 188°
2026-05-05 16:35 -11.37682 -62.02561 34053 ft 476 kts 188°
2026-05-05 16:35 -11.44188 -62.03595 34073 ft 476 kts 187°
2026-05-05 16:36 -11.50731 -62.04635 34088 ft 476 kts 188°
2026-05-05 16:36 -11.57268 -62.05677 34092 ft 476 kts 188°
2026-05-05 16:37 -11.63813 -62.06720 34094 ft 476 kts 188°
2026-05-05 16:37 -11.70365 -62.07766 34092 ft 476 kts 188°
2026-05-05 16:38 -11.76911 -62.08826 34091 ft 476 kts 189°
2026-05-05 16:38 -11.83421 -62.10082 34094 ft 476 kts 189°
2026-05-05 16:39 -11.89928 -62.11333 34090 ft 476 kts 189°
2026-05-05 16:39 -11.96446 -62.12573 34086 ft 476 kts 189°
2026-05-05 16:40 -12.02925 -62.13804 34088 ft 476 kts 189°
2026-05-05 16:40 -12.09483 -62.15051 34085 ft 476 kts 189°
2026-05-05 16:41 -12.15959 -62.16283 34087 ft 476 kts 189°
2026-05-05 16:41 -12.22476 -62.17524 34086 ft 476 kts 189°
2026-05-05 16:42 -12.28996 -62.18765 34084 ft 476 kts 189°
2026-05-05 16:42 -12.35507 -62.20006 34085 ft 476 kts 189°
2026-05-05 16:43 -12.42040 -62.21250 34084 ft 476 kts 189°
2026-05-05 16:43 -12.48561 -62.22492 34083 ft 476 kts 189°
2026-05-05 16:44 -12.55037 -62.23728 34084 ft 476 kts 189°
2026-05-05 16:44 -12.61565 -62.24975 34080 ft 476 kts 189°
2026-05-05 16:45 -12.68097 -62.26223 34081 ft 476 kts 189°
2026-05-05 16:45 -12.74621 -62.27471 34083 ft 477 kts 189°
2026-05-05 16:46 -12.81135 -62.28717 34077 ft 476 kts 189°
2026-05-05 16:46 -12.87620 -62.29957 34081 ft 476 kts 189°
2026-05-05 16:47 -12.94154 -62.31209 34079 ft 476 kts 189°
2026-05-05 16:47 -13.00669 -62.32459 34074 ft 476 kts 189°
2026-05-05 16:48 -13.07204 -62.33713 34081 ft 477 kts 189°
2026-05-05 16:48 -13.13678 -62.34956 34069 ft 477 kts 189°
2026-05-05 16:49 -13.20214 -62.36161 34060 ft 476 kts 188°
2026-05-05 16:49 -13.26753 -62.37312 34061 ft 477 kts 189°
2026-05-05 16:50 -13.33293 -62.38473 34054 ft 477 kts 189°
2026-05-05 16:50 -13.39830 -62.39636 34057 ft 477 kts 189°
2026-05-05 16:51 -13.46374 -62.40798 34056 ft 477 kts 189°
2026-05-05 16:51 -13.52868 -62.41954 34053 ft 477 kts 189°
2026-05-05 16:52 -13.59448 -62.43128 34050 ft 476 kts 189°
2026-05-05 16:52 -13.65929 -62.44285 34041 ft 476 kts 189°
2026-05-05 16:53 -13.72465 -62.45451 34040 ft 476 kts 189°
2026-05-05 16:53 -13.78997 -62.46612 34043 ft 476 kts 189°
2026-05-05 16:54 -13.85524 -62.47767 34040 ft 476 kts 189°
2026-05-05 16:54 -13.92061 -62.48926 34041 ft 476 kts 189°
2026-05-05 16:55 -13.98586 -62.50083 34041 ft 476 kts 189°
2026-05-05 16:55 -14.05103 -62.51240 34041 ft 476 kts 189°
2026-05-05 16:56 -14.11589 -62.52390 34043 ft 475 kts 189°
2026-05-05 16:56 -14.18111 -62.53546 34045 ft 474 kts 189°
2026-05-05 16:57 -14.24607 -62.54701 34043 ft 474 kts 189°
2026-05-05 16:57 -14.31120 -62.55859 34047 ft 475 kts 189°
2026-05-05 16:58 -14.37639 -62.57018 34046 ft 474 kts 189°
2026-05-05 16:58 -14.44108 -62.58170 34049 ft 474 kts 189°
2026-05-05 16:59 -14.50614 -62.59329 34051 ft 474 kts 189°
2026-05-05 16:59 -14.57141 -62.60492 34050 ft 475 kts 189°
2026-05-05 17:00 -14.63625 -62.61649 34053 ft 475 kts 189°
2026-05-05 17:00 -14.70133 -62.62810 34053 ft 475 kts 189°
2026-05-05 17:01 -14.76657 -62.63973 34053 ft 475 kts 189°
2026-05-05 17:01 -14.83143 -62.65132 34053 ft 475 kts 189°
2026-05-05 17:02 -14.89655 -62.66297 34053 ft 475 kts 189°
2026-05-05 17:02 -14.96168 -62.67463 34053 ft 473 kts 189°
2026-05-05 17:03 -15.01566 -62.68429 34053 ft 473 kts 189°
2026-05-05 17:03 -15.09148 -62.69778 34053 ft 473 kts 189°
2026-05-05 17:04 -15.14542 -62.70733 34053 ft 473 kts 189°
2026-05-05 17:04 -15.22097 -62.72073 34053 ft 473 kts 189°
2026-05-05 17:05 -15.27501 -62.73033 34053 ft 473 kts 189°
2026-05-05 17:05 -15.34002 -62.74188 34053 ft 473 kts 189°
2026-05-05 17:06 -15.40497 -62.75340 34053 ft 473 kts 189°
2026-05-05 17:06 -15.46970 -62.76490 34053 ft 474 kts 189°
2026-05-05 17:07 -15.53476 -62.77646 34053 ft 475 kts 189°
2026-05-05 17:07 -15.59996 -62.78806 34053 ft 475 kts 189°
2026-05-05 17:08 -15.66528 -62.79968 34053 ft 475 kts 189°
2026-05-05 17:08 -15.73012 -62.81124 34053 ft 475 kts 189°
2026-05-05 17:09 -15.79556 -62.82291 34053 ft 476 kts 189°
2026-05-05 17:09 -15.86077 -62.83454 34053 ft 475 kts 189°
2026-05-05 17:10 -15.92561 -62.84612 34053 ft 475 kts 189°
2026-05-05 17:10 -15.99091 -62.85779 34053 ft 476 kts 189°
2026-05-05 17:11 -16.05615 -62.86939 34053 ft 474 kts 189°
2026-05-05 17:11 -16.12124 -62.88107 34053 ft 474 kts 190°
2026-05-05 17:12 -16.18625 -62.89273 34053 ft 474 kts 190°
2026-05-05 17:12 -16.25131 -62.90439 34053 ft 473 kts 190°
2026-05-05 17:13 -16.31585 -62.91596 34053 ft 475 kts 189°
2026-05-05 17:13 -16.38094 -62.92738 34053 ft 474 kts 189°
2026-05-05 17:14 -16.44602 -62.93883 34053 ft 473 kts 189°
2026-05-05 17:14 -16.51115 -62.95030 34053 ft 474 kts 189°
2026-05-05 17:15 -16.57581 -62.96170 34053 ft 473 kts 189°
2026-05-05 17:15 -16.64076 -62.97316 34053 ft 474 kts 189°
2026-05-05 17:16 -16.70578 -62.98459 34052 ft 474 kts 189°
2026-05-05 17:16 -16.77095 -62.99607 34049 ft 474 kts 190°
2026-05-05 17:17 -16.83603 -63.00757 34048 ft 474 kts 190°
2026-05-05 17:17 -16.90125 -63.01906 34038 ft 475 kts 190°
2026-05-05 17:18 -16.96667 -63.03065 34033 ft 479 kts 191°
2026-05-05 17:18 -17.03247 -63.04231 34031 ft 479 kts 191°
2026-05-05 17:19 -17.09773 -63.05387 34028 ft 478 kts 191°
2026-05-05 17:19 -17.16323 -63.06549 34028 ft 477 kts 190°
2026-05-05 17:20 -17.22867 -63.07709 34027 ft 477 kts 190°
2026-05-05 17:20 -17.29387 -63.08867 34025 ft 475 kts 190°
2026-05-05 17:21 -17.35919 -63.10024 34025 ft 477 kts 191°
2026-05-05 17:22 -17.45743 -63.11775 34024 ft 474 kts 189°
2026-05-05 17:22 -17.52247 -63.12924 34023 ft 475 kts 190°
2026-05-05 17:23 -17.58793 -63.14096 34020 ft 478 kts 191°
2026-05-05 17:23 -17.65266 -63.15750 33992 ft 480 kts 201°
2026-05-05 17:24 -17.71530 -63.18227 33976 ft 483 kts 204°
2026-05-05 17:24 -17.77799 -63.20780 33964 ft 487 kts 204°
2026-05-05 17:25 -17.84117 -63.23316 33957 ft 486 kts 204°
2026-05-05 17:25 -17.90440 -63.25844 33969 ft 485 kts 203°
2026-05-05 17:26 -17.96756 -63.28363 33989 ft 484 kts 202°
2026-05-05 17:26 -18.03057 -63.30868 34003 ft 484 kts 202°
2026-05-05 17:27 -18.09362 -63.33381 34006 ft 483 kts 202°
2026-05-05 17:27 -18.15625 -63.35875 33982 ft 486 kts 203°
2026-05-05 17:28 -18.21952 -63.38407 33967 ft 485 kts 204°
2026-05-05 17:28 -18.28249 -63.40926 33967 ft 483 kts 203°
2026-05-05 17:29 -18.34540 -63.43444 33973 ft 484 kts 203°
2026-05-05 17:29 -18.40836 -63.45967 33978 ft 483 kts 203°
2026-05-05 17:30 -18.47087 -63.48472 33981 ft 483 kts 203°
2026-05-05 17:30 -18.53374 -63.50994 33981 ft 483 kts 203°
2026-05-05 17:31 -18.59657 -63.53514 33993 ft 482 kts 202°
2026-05-05 17:31 -18.65933 -63.56032 33997 ft 483 kts 202°
2026-05-05 17:32 -18.72201 -63.58555 33997 ft 481 kts 202°
2026-05-05 17:32 -18.78431 -63.61065 34002 ft 482 kts 202°
2026-05-05 17:33 -18.84691 -63.63587 34005 ft 480 kts 202°
2026-05-05 17:33 -18.90931 -63.66088 34006 ft 479 kts 202°
2026-05-05 17:34 -18.97175 -63.68559 34003 ft 479 kts 202°
2026-05-05 17:34 -19.03424 -63.71038 33999 ft 479 kts 203°
2026-05-05 17:35 -19.09678 -63.73524 34001 ft 480 kts 203°
2026-05-05 17:35 -19.15934 -63.76014 34008 ft 480 kts 202°
2026-05-05 17:36 -19.22159 -63.78484 34008 ft 480 kts 203°
2026-05-05 17:36 -19.28425 -63.80973 34011 ft 480 kts 203°
2026-05-05 17:37 -19.34682 -63.83463 34010 ft 481 kts 203°
2026-05-05 17:37 -19.40948 -63.85961 34006 ft 481 kts 203°
2026-05-05 17:38 -19.47223 -63.88458 34004 ft 479 kts 204°
2026-05-05 17:38 -19.53461 -63.90949 34002 ft 479 kts 204°
2026-05-05 17:39 -19.59677 -63.93437 33998 ft 476 kts 204°
2026-05-05 17:39 -19.65891 -63.95925 34000 ft 478 kts 204°
2026-05-05 17:40 -19.72081 -63.98403 33995 ft 478 kts 204°
2026-05-05 17:40 -19.78320 -64.00890 33999 ft 479 kts 204°
2026-05-05 17:41 -19.84584 -64.03391 34003 ft 480 kts 204°
2026-05-05 17:41 -19.90831 -64.05889 33996 ft 479 kts 204°
2026-05-05 17:42 -19.97074 -64.08367 33993 ft 479 kts 204°
2026-05-05 17:42 -20.03330 -64.10855 33991 ft 480 kts 204°
2026-05-05 17:43 -20.09549 -64.13333 33986 ft 474 kts 204°
2026-05-05 17:43 -20.15663 -64.15772 33984 ft 472 kts 204°
2026-05-05 17:44 -20.21837 -64.18235 33983 ft 474 kts 204°
2026-05-05 17:44 -20.28001 -64.20682 33982 ft 472 kts 204°
2026-05-05 17:45 -20.34169 -64.23145 33981 ft 473 kts 204°
2026-05-05 17:45 -20.40349 -64.25618 33981 ft 474 kts 204°
2026-05-05 17:46 -20.46470 -64.28070 33979 ft 472 kts 204°
2026-05-05 17:46 -20.52630 -64.30538 33979 ft 472 kts 204°
2026-05-05 17:47 -20.58793 -64.33000 33978 ft 472 kts 204°
2026-05-05 17:47 -20.64916 -64.35437 33976 ft 472 kts 204°
2026-05-05 17:48 -20.71081 -64.37895 33976 ft 473 kts 204°
2026-05-05 17:48 -20.77241 -64.40359 34001 ft 473 kts 204°
2026-05-05 17:49 -20.83430 -64.42837 34013 ft 474 kts 204°
2026-05-05 17:49 -20.89608 -64.45312 34022 ft 475 kts 204°
2026-05-05 17:50 -20.94767 -64.47379 34031 ft 475 kts 204°
2026-05-05 17:50 -21.00962 -64.49853 34037 ft 476 kts 204°
2026-05-05 17:51 -21.07168 -64.52338 34043 ft 476 kts 204°
2026-05-05 17:51 -21.13369 -64.54807 34049 ft 476 kts 204°
2026-05-05 17:52 -21.19580 -64.57278 34055 ft 476 kts 204°
2026-05-05 17:52 -21.25780 -64.59743 34062 ft 475 kts 204°
2026-05-05 17:53 -21.31982 -64.62209 34069 ft 475 kts 204°
2026-05-05 17:53 -21.38184 -64.64685 34073 ft 475 kts 204°
2026-05-05 17:54 -21.44388 -64.67165 34076 ft 475 kts 204°
2026-05-05 17:54 -21.50550 -64.69630 34077 ft 475 kts 204°
2026-05-05 17:55 -21.56763 -64.72084 34081 ft 476 kts 202°
2026-05-05 17:55 -21.63038 -64.74389 34078 ft 476 kts 202°
2026-05-05 17:56 -21.69315 -64.76706 34077 ft 476 kts 202°
2026-05-05 17:56 -21.75578 -64.79026 34075 ft 476 kts 202°
2026-05-05 17:57 -21.81854 -64.81356 34070 ft 477 kts 202°
2026-05-05 17:57 -21.88087 -64.83670 34061 ft 477 kts 202°
2026-05-05 17:58 -21.94388 -64.86002 34054 ft 477 kts 202°
2026-05-05 17:58 -22.00668 -64.88334 34047 ft 478 kts 202°
2026-05-05 17:59 -22.06969 -64.90678 34042 ft 478 kts 202°
2026-05-05 17:59 -22.13228 -64.93009 34035 ft 479 kts 203°
2026-05-05 18:00 -22.19542 -64.95363 34029 ft 479 kts 203°
2026-05-05 18:00 -22.25853 -64.97719 34025 ft 480 kts 203°
2026-05-05 18:01 -22.32148 -65.00071 34022 ft 481 kts 203°
2026-05-05 18:01 -22.38475 -65.02438 34021 ft 481 kts 203°
2026-05-05 18:02 -22.44809 -65.04809 34018 ft 480 kts 203°
2026-05-05 18:02 -22.51125 -65.07176 34015 ft 480 kts 203°
2026-05-05 18:03 -22.57429 -65.09540 34009 ft 479 kts 203°
2026-05-05 18:03 -22.63732 -65.11907 34009 ft 480 kts 203°
2026-05-05 18:04 -22.70040 -65.14277 34002 ft 479 kts 203°
2026-05-05 18:04 -22.76332 -65.16644 34001 ft 478 kts 203°
2026-05-05 18:05 -22.82583 -65.18998 34009 ft 479 kts 203°
2026-05-05 18:05 -22.88887 -65.21374 34005 ft 479 kts 203°
2026-05-05 18:06 -22.95189 -65.23752 33999 ft 479 kts 203°
2026-05-05 18:06 -23.01491 -65.26132 34000 ft 479 kts 203°
2026-05-05 18:07 -23.07802 -65.28518 34008 ft 480 kts 203°
2026-05-05 18:07 -23.14110 -65.30905 34015 ft 480 kts 203°
2026-05-05 18:08 -23.20430 -65.33299 34017 ft 481 kts 203°
2026-05-05 18:08 -23.26715 -65.35682 34022 ft 481 kts 203°
2026-05-05 18:09 -23.33083 -65.38099 34024 ft 482 kts 203°
2026-05-05 18:09 -23.39386 -65.40494 34025 ft 482 kts 203°
2026-05-05 18:10 -23.45715 -65.42901 34031 ft 482 kts 203°
2026-05-05 18:10 -23.52048 -65.45312 34032 ft 482 kts 203°
2026-05-05 18:11 -23.58383 -65.47726 34038 ft 482 kts 203°
2026-05-05 18:11 -23.64715 -65.50142 34050 ft 481 kts 203°
2026-05-05 18:12 -23.71033 -65.52555 34060 ft 481 kts 203°
2026-05-05 18:12 -23.77350 -65.54970 34067 ft 481 kts 203°
2026-05-05 18:13 -23.83627 -65.57371 34068 ft 480 kts 203°
2026-05-05 18:13 -23.89937 -65.59788 34069 ft 480 kts 203°
2026-05-05 18:14 -23.96239 -65.62205 34073 ft 480 kts 203°
2026-05-05 18:14 -24.02551 -65.64628 34071 ft 480 kts 203°
2026-05-05 18:15 -24.08854 -65.67050 34071 ft 480 kts 203°
2026-05-05 18:15 -24.15158 -65.69475 34074 ft 480 kts 203°
2026-05-05 18:16 -24.21422 -65.71887 34074 ft 480 kts 203°
2026-05-05 18:16 -24.27723 -65.74316 34076 ft 480 kts 203°
2026-05-05 18:17 -24.34024 -65.76747 34078 ft 479 kts 203°
2026-05-05 18:17 -24.40329 -65.79183 34078 ft 479 kts 203°
2026-05-05 18:18 -24.46618 -65.81615 34079 ft 479 kts 203°
2026-05-05 18:18 -24.52918 -65.84053 34079 ft 479 kts 203°
2026-05-05 18:19 -24.59179 -65.86479 34078 ft 479 kts 203°
2026-05-05 18:19 -24.65462 -65.88917 34079 ft 479 kts 203°
2026-05-05 18:20 -24.71761 -65.91363 34079 ft 479 kts 203°
2026-05-05 18:20 -24.78057 -65.93811 34078 ft 479 kts 203°
2026-05-05 18:21 -24.84350 -65.96260 34081 ft 479 kts 203°
2026-05-05 18:21 -24.90598 -65.98694 34083 ft 479 kts 203°
2026-05-05 18:22 -24.96890 -66.01148 34082 ft 479 kts 203°
2026-05-05 18:22 -25.03174 -66.03602 34082 ft 479 kts 203°
2026-05-05 18:23 -25.09457 -66.06057 34082 ft 479 kts 203°
2026-05-05 18:23 -25.15730 -66.08512 34082 ft 479 kts 203°
2026-05-05 18:24 -25.22009 -66.10971 34082 ft 478 kts 203°
2026-05-05 18:24 -25.28288 -66.13434 34082 ft 478 kts 203°
2026-05-05 18:25 -25.34527 -66.15883 34082 ft 478 kts 203°
2026-05-05 18:25 -25.40815 -66.18324 34066 ft 477 kts 205°
2026-05-05 18:26 -25.47051 -66.20789 34041 ft 475 kts 206°
2026-05-05 18:26 -25.53288 -66.23258 34033 ft 476 kts 206°
2026-05-05 18:27 -25.59532 -66.25724 34033 ft 476 kts 205°
2026-05-05 18:27 -25.65780 -66.28192 34034 ft 476 kts 205°
2026-05-05 18:28 -25.75120 -66.31885 34039 ft 477 kts 205°
2026-05-05 18:28 -25.81378 -66.34363 34038 ft 477 kts 205°
2026-05-05 18:29 -25.87623 -66.36838 34042 ft 477 kts 205°
2026-05-05 18:29 -25.93877 -66.39319 34043 ft 477 kts 205°
2026-05-05 18:30 -26.00143 -66.41808 34043 ft 478 kts 205°
2026-05-05 18:30 -26.06367 -66.44283 34047 ft 478 kts 205°
2026-05-05 18:31 -26.12635 -66.46778 34045 ft 478 kts 205°
2026-05-05 18:31 -26.18900 -66.49275 34042 ft 478 kts 205°
2026-05-05 18:32 -26.25177 -66.51780 34040 ft 478 kts 205°
2026-05-05 18:32 -26.31443 -66.54283 34037 ft 478 kts 205°
2026-05-05 18:33 -26.37682 -66.56778 34035 ft 479 kts 206°
2026-05-05 18:33 -26.43946 -66.59286 34035 ft 479 kts 206°
2026-05-05 18:34 -26.49134 -66.61322 33989 ft 470 kts 208°
2026-05-05 18:34 -26.55225 -66.63793 33951 ft 462 kts 208°
2026-05-05 18:35 -26.61285 -66.66237 33933 ft 463 kts 208°
2026-05-05 18:35 -26.67356 -66.68684 33930 ft 463 kts 208°
2026-05-05 18:36 -26.73397 -66.71132 33928 ft 460 kts 210°
2026-05-05 18:36 -26.79060 -66.74266 33930 ft 451 kts 218°
2026-05-05 18:37 -26.84443 -66.77846 33934 ft 450 kts 219°
2026-05-05 18:37 -26.89832 -66.81443 33940 ft 451 kts 219°
2026-05-05 18:38 -26.95198 -66.85021 33943 ft 451 kts 219°
2026-05-05 18:38 -27.00599 -66.88623 33947 ft 451 kts 219°
2026-05-05 18:39 -27.06012 -66.92229 33950 ft 452 kts 218°
2026-05-05 18:39 -27.11438 -66.95828 33955 ft 454 kts 218°
2026-05-05 18:40 -27.16872 -66.99447 33956 ft 453 kts 218°
2026-05-05 18:40 -27.22263 -67.03045 33961 ft 453 kts 218°
2026-05-05 18:41 -27.27691 -67.06674 33967 ft 454 kts 218°
2026-05-05 18:41 -27.33127 -67.10314 33969 ft 454 kts 218°
2026-05-05 18:42 -27.38561 -67.13956 33971 ft 454 kts 218°
2026-05-05 18:42 -27.43988 -67.17599 33976 ft 455 kts 218°
2026-05-05 18:43 -27.49395 -67.21231 33979 ft 455 kts 218°
2026-05-05 18:43 -27.54869 -67.24914 33980 ft 455 kts 218°
2026-05-05 18:44 -27.60274 -67.28555 33978 ft 455 kts 218°
2026-05-05 18:44 -27.65714 -67.32222 33984 ft 456 kts 218°
2026-05-05 18:45 -27.71161 -67.35900 33985 ft 456 kts 218°
2026-05-05 18:45 -27.76598 -67.39574 33987 ft 456 kts 218°
2026-05-05 18:46 -27.82056 -67.43268 33991 ft 457 kts 218°
2026-05-05 18:46 -27.87514 -67.46957 33992 ft 457 kts 218°
2026-05-05 18:47 -27.92937 -67.50628 33992 ft 456 kts 218°
2026-05-05 18:47 -27.98380 -67.54328 33993 ft 456 kts 218°
2026-05-05 18:48 -28.03826 -67.58037 33993 ft 456 kts 218°
2026-05-05 18:48 -28.09256 -67.61739 33993 ft 456 kts 218°
2026-05-05 18:49 -28.14688 -67.65443 33983 ft 455 kts 218°
2026-05-05 18:49 -28.20128 -67.69096 33970 ft 454 kts 218°
2026-05-05 18:50 -28.25571 -67.72759 33977 ft 455 kts 218°
2026-05-05 18:50 -28.30997 -67.76417 33978 ft 457 kts 218°
2026-05-05 18:51 -28.36478 -67.80088 33968 ft 457 kts 219°
2026-05-05 18:51 -28.41945 -67.83779 33962 ft 456 kts 219°
2026-05-05 18:52 -28.47390 -67.87467 33954 ft 454 kts 219°
2026-05-05 18:52 -28.52803 -67.91136 33935 ft 451 kts 219°
2026-05-05 18:53 -28.58200 -67.94796 33925 ft 451 kts 219°
2026-05-05 18:53 -28.63602 -67.98466 33926 ft 452 kts 219°
2026-05-05 18:54 -28.68961 -68.02112 33918 ft 450 kts 220°
2026-05-05 18:54 -28.74324 -68.05768 33908 ft 449 kts 220°
2026-05-05 18:55 -28.79691 -68.09432 33905 ft 450 kts 220°
2026-05-05 18:55 -28.85055 -68.13099 33893 ft 448 kts 220°
2026-05-05 18:56 -28.90392 -68.16739 33883 ft 447 kts 220°
2026-05-05 18:56 -28.95749 -68.20386 33882 ft 449 kts 220°
2026-05-05 18:57 -29.01105 -68.24049 33888 ft 452 kts 220°
2026-05-05 18:57 -29.06490 -68.27738 33878 ft 450 kts 220°
2026-05-05 18:58 -29.11855 -68.31420 33875 ft 450 kts 220°
2026-05-05 18:58 -29.17236 -68.35117 33865 ft 449 kts 220°
2026-05-05 18:59 -29.22577 -68.38792 33848 ft 447 kts 220°
2026-05-05 18:59 -29.27916 -68.42470 33841 ft 448 kts 220°
2026-05-05 19:00 -29.33278 -68.46153 33853 ft 451 kts 220°
2026-05-05 19:00 -29.38669 -68.49877 33851 ft 452 kts 220°
2026-05-05 19:01 -29.44020 -68.53585 33840 ft 452 kts 220°
2026-05-05 19:01 -29.49408 -68.57321 33832 ft 452 kts 220°
2026-05-05 19:02 -29.54811 -68.61069 33829 ft 453 kts 220°
2026-05-05 19:02 -29.60144 -68.64842 33827 ft 453 kts 221°
2026-05-05 19:03 -29.65501 -68.68663 33826 ft 453 kts 221°
2026-05-05 19:03 -29.70861 -68.72490 33826 ft 453 kts 221°
2026-05-05 19:04 -29.76229 -68.76328 33823 ft 454 kts 221°
2026-05-05 19:04 -29.81609 -68.80181 33822 ft 455 kts 221°
2026-05-05 19:05 -29.86970 -68.84005 33821 ft 456 kts 221°
2026-05-05 19:05 -29.92378 -68.87860 33819 ft 457 kts 221°
2026-05-05 19:06 -29.97777 -68.91722 33820 ft 457 kts 221°
2026-05-05 19:06 -30.00456 -68.93642 33817 ft 444 kts 221°
2026-05-05 19:06 -30.03037 -68.95494 33815 ft 428 kts 221°
2026-05-05 19:07 -30.05520 -68.97277 33814 ft 413 kts 222°
2026-05-05 19:07 -30.07915 -68.98998 33811 ft 399 kts 222°
2026-05-05 19:07 -30.10235 -69.00666 33809 ft 385 kts 223°
2026-05-05 19:07 -30.12477 -69.02279 33806 ft 372 kts 223°
2026-05-05 19:08 -30.14639 -69.03835 33804 ft 360 kts 223°
2026-05-05 19:08 -30.16733 -69.05344 33811 ft 359 kts 223°
2026-05-05 19:08 -30.21005 -69.08424 33822 ft 365 kts 223°
2026-05-05 19:09 -30.25340 -69.11552 33821 ft 368 kts 223°
2026-05-05 19:09 -30.29674 -69.14683 33822 ft 367 kts 223°
2026-05-05 19:10 -30.33984 -69.17799 33826 ft 365 kts 223°
2026-05-05 19:10 -30.38295 -69.20920 33827 ft 365 kts 223°
2026-05-05 19:11 -30.42602 -69.24042 33828 ft 365 kts 223°
2026-05-05 19:11 -30.46900 -69.27160 33830 ft 364 kts 223°
2026-05-05 19:12 -30.51179 -69.30268 33832 ft 364 kts 223°
2026-05-05 19:12 -30.55465 -69.33383 33834 ft 363 kts 224°
2026-05-05 19:13 -30.59746 -69.36499 33837 ft 363 kts 224°
2026-05-05 19:13 -30.64013 -69.39608 33839 ft 362 kts 224°
2026-05-05 19:14 -30.68278 -69.42718 33840 ft 361 kts 224°
2026-05-05 19:14 -30.72511 -69.45809 33841 ft 361 kts 224°
2026-05-05 19:15 -30.76764 -69.48917 33842 ft 361 kts 224°
2026-05-05 19:15 -30.81004 -69.52019 33849 ft 359 kts 224°
2026-05-05 19:16 -30.85234 -69.55117 33849 ft 359 kts 224°
2026-05-05 19:16 -30.89433 -69.58195 33852 ft 358 kts 224°
2026-05-05 19:17 -30.93652 -69.61292 33851 ft 358 kts 224°
2026-05-05 19:17 -30.97862 -69.64385 33854 ft 357 kts 224°
2026-05-05 19:18 -31.02068 -69.67478 33854 ft 357 kts 224°
2026-05-05 19:18 -31.06271 -69.70573 33854 ft 357 kts 224°
2026-05-05 19:19 -31.09762 -69.73146 33855 ft 357 kts 225°
2026-05-05 19:19 -31.13951 -69.76236 33860 ft 355 kts 225°
2026-05-05 19:20 -31.18131 -69.79323 33861 ft 355 kts 225°
2026-05-05 19:20 -31.22289 -69.82397 33860 ft 355 kts 225°
2026-05-05 19:21 -31.26469 -69.85491 33858 ft 356 kts 225°
2026-05-05 19:21 -31.30655 -69.88592 33859 ft 355 kts 225°
2026-05-05 19:22 -31.34825 -69.91685 33860 ft 354 kts 225°
2026-05-05 19:22 -31.38963 -69.94757 33860 ft 354 kts 225°
2026-05-05 19:23 -31.43125 -69.97850 33861 ft 353 kts 225°
2026-05-05 19:23 -31.47265 -70.00929 33863 ft 352 kts 225°
2026-05-05 19:24 -31.51376 -70.03991 33865 ft 350 kts 226°
2026-05-05 19:24 -31.55486 -70.07056 33865 ft 350 kts 226°
2026-05-05 19:25 -31.59600 -70.10127 33863 ft 351 kts 226°
2026-05-05 19:25 -31.63725 -70.13192 33860 ft 351 kts 226°
2026-05-05 19:26 -31.67816 -70.16247 33848 ft 350 kts 226°
2026-05-05 19:26 -31.69861 -70.17779 33519 ft 349 kts 226°
2026-05-05 19:26 -31.71904 -70.19312 33123 ft 348 kts 226°
2026-05-05 19:27 -31.73944 -70.20843 32732 ft 347 kts 226°
2026-05-05 19:27 -31.75974 -70.22369 32354 ft 346 kts 225°
2026-05-05 19:27 -31.77983 -70.23879 31986 ft 345 kts 225°
2026-05-05 19:27 -31.80027 -70.25416 31618 ft 344 kts 225°
2026-05-05 19:28 -31.82012 -70.26909 31262 ft 343 kts 225°
2026-05-05 19:28 -31.84021 -70.28420 30911 ft 342 kts 225°
2026-05-05 19:28 -31.86020 -70.29924 30564 ft 341 kts 225°
2026-05-05 19:28 -31.88015 -70.31426 30220 ft 340 kts 225°
2026-05-05 19:29 -31.89874 -70.33057 29946 ft 323 kts 236°
2026-05-05 19:29 -31.91234 -70.35036 29894 ft 305 kts 250°
2026-05-05 19:29 -31.92052 -70.37290 29847 ft 296 kts 264°
2026-05-05 19:29 -31.92273 -70.39666 29851 ft 292 kts 278°
2026-05-05 19:30 -31.91882 -70.42009 29849 ft 292 kts 292°
2026-05-05 19:30 -31.90906 -70.44110 29847 ft 296 kts 306°
2026-05-05 19:30 -31.89406 -70.45814 29846 ft 306 kts 320°
2026-05-05 19:30 -31.87478 -70.46988 29846 ft 320 kts 333°
2026-05-05 19:31 -31.85267 -70.47531 29845 ft 337 kts 346°
2026-05-05 19:31 -31.82866 -70.47394 29845 ft 356 kts 359°
2026-05-05 19:31 -31.80427 -70.46549 29845 ft 375 kts 12°